Time,TemperatureF,DewpointF,PressureIn,WindDirection,WindDirectionDegrees,WindSpeedMPH,WindSpeedGustMPH,Humidity,HourlyPrecipIn,Conditions,Clouds,dailyrainin,SoftwareType,DateUTC
2013-04-07 01:03:00,56.5,33.0,30.13,SSE,158,1.0,9.0,41,0.00,,,0.00,weatherlink.com 1.10,2013-04-07 05:03:00,
2013-04-07 01:33:00,55.8,33.0,30.13,SSW,207,0.0,7.0,43,0.00,,,0.00,weatherlink.com 1.10,2013-04-07 05:33:00,
2013-04-07 01:49:00,54.7,33.0,30.13,SSE,166,4.0,5.0,44,0.00,,,0.00,weatherlink.com 1.10,2013-04-07 05:49:00,
2013-04-07 04:50:00,50.3,33.0,30.10,NE,56,1.0,2.0,52,0.00,,,0.00,weatherlink.com 1.10,2013-04-07 08:50:00,
2013-04-07 05:05:00,49.6,33.0,30.09,East,95,0.0,-999.0,54,-99.99,,,0.00,weatherlink.com 1.10,2013-04-07 09:05:00,
2013-04-07 05:20:00,46.6,34.0,30.09,NE,49,1.0,3.0,61,0.00,,,0.00,weatherlink.com 1.10,2013-04-07 09:20:00,
2013-04-07 05:35:00,46.8,33.0,30.10,NNE,29,1.0,2.0,59,0.00,,,0.00,weatherlink.com 1.10,2013-04-07 09:35:00,
2013-04-07 05:50:00,47.0,34.0,30.10,South,174,0.0,3.0,60,0.00,,,0.00,weatherlink.com 1.10,2013-04-07 09:50:00,
2013-04-07 06:05:00,46.1,33.0,30.11,SSW,205,0.0,1.0,61,0.00,,,0.00,weatherlink.com 1.10,2013-04-07 10:05:00,
2013-04-07 06:20:00,46.5,33.0,30.11,SSW,205,0.0,1.0,60,0.00,,,0.00,weatherlink.com 1.10,2013-04-07 10:20:00,
2013-04-07 06:35:00,46.4,33.0,30.11,SSW,205,0.0,1.0,60,0.00,,,0.00,weatherlink.com 1.10,2013-04-07 10:35:00,
2013-04-07 07:05:00,45.5,33.0,30.12,SSE,162,0.0,1.0,62,0.00,,,0.00,weatherlink.com 1.10,2013-04-07 11:05:00,
2013-04-07 07:20:00,44.1,33.0,30.13,SSE,160,0.0,1.0,66,0.00,,,0.00,weatherlink.com 1.10,2013-04-07 11:20:00,
2013-04-07 07:35:00,44.2,34.0,30.13,SSE,160,0.0,0.0,67,0.00,,,0.00,weatherlink.com 1.10,2013-04-07 11:35:00,
2013-04-07 07:50:00,44.3,34.0,30.13,SSE,161,0.0,1.0,67,0.00,,,0.00,weatherlink.com 1.10,2013-04-07 11:50:00,
2013-04-07 08:05:00,44.0,34.0,30.14,SSE,160,0.0,0.0,69,0.00,,,0.00,weatherlink.com 1.10,2013-04-07 12:05:00,
2013-04-07 08:20:00,44.0,34.0,30.14,SSE,160,0.0,0.0,68,0.00,,,0.00,weatherlink.com 1.10,2013-04-07 12:20:00,
2013-04-07 08:35:00,46.1,38.0,30.14,SSE,160,0.0,1.0,72,0.00,,,0.00,weatherlink.com 1.10,2013-04-07 12:35:00,
2013-04-07 08:50:00,49.5,40.0,30.15,East,86,1.0,1.0,70,0.00,,,0.00,weatherlink.com 1.10,2013-04-07 12:50:00,
2013-04-07 09:20:00,53.4,40.0,30.15,NE,46,0.0,1.0,60,0.00,,,0.00,weatherlink.com 1.10,2013-04-07 13:20:00,
2013-04-07 09:35:00,56.9,38.0,30.14,South,176,3.0,6.0,50,0.00,,,0.00,weatherlink.com 1.10,2013-04-07 13:35:00,
2013-04-07 09:50:00,57.8,39.0,30.14,South,169,7.0,10.0,49,0.00,,,0.00,weatherlink.com 1.10,2013-04-07 13:50:00,
2013-04-07 10:05:00,59.2,39.0,30.14,South,188,7.0,17.0,48,0.00,,,0.00,weatherlink.com 1.10,2013-04-07 14:05:00,
2013-04-07 10:21:00,60.8,40.0,30.14,SSE,160,4.0,17.0,47,0.00,,,0.00,weatherlink.com 1.10,2013-04-07 14:21:00,
2013-04-07 10:36:00,62.4,41.0,30.14,SSE,167,9.0,19.0,45,0.00,,,0.00,weatherlink.com 1.10,2013-04-07 14:36:00,
2013-04-07 10:51:00,63.0,41.0,30.13,South,184,10.0,22.0,44,0.00,,,0.00,weatherlink.com 1.10,2013-04-07 14:51:00,
2013-04-07 11:21:00,63.9,41.0,30.13,South,177,13.0,23.0,43,0.00,,,0.00,weatherlink.com 1.10,2013-04-07 15:21:00,
2013-04-07 11:36:00,64.7,43.0,30.13,SSW,197,5.0,26.0,45,0.00,,,0.00,weatherlink.com 1.10,2013-04-07 15:36:00,
2013-04-07 11:51:00,66.0,42.0,30.13,WSW,239,6.0,23.0,42,0.00,,,0.00,weatherlink.com 1.10,2013-04-07 15:51:00,
2013-04-07 12:36:00,66.6,43.0,30.12,South,181,11.0,19.0,42,0.00,,,0.00,weatherlink.com 1.10,2013-04-07 16:36:00,
2013-04-07 12:51:00,66.6,43.0,30.11,South,191,11.0,27.0,42,0.00,,,0.00,weatherlink.com 1.10,2013-04-07 16:51:00,
2013-04-07 13:21:00,68.3,44.0,30.10,SE,144,13.0,15.0,41,0.00,,,0.00,weatherlink.com 1.10,2013-04-07 17:21:00,
2013-04-07 13:36:00,67.9,43.0,30.09,SSW,195,7.0,20.0,40,0.00,,,0.00,weatherlink.com 1.10,2013-04-07 17:36:00,
2013-04-07 13:51:00,67.5,45.0,30.08,WSW,248,4.0,21.0,44,0.00,,,0.00,weatherlink.com 1.10,2013-04-07 17:51:00,
2013-04-07 14:06:00,67.2,43.0,30.09,SSW,205,8.0,21.0,42,0.00,,,0.00,weatherlink.com 1.10,2013-04-07 18:06:00,
2013-04-07 14:21:00,67.9,43.0,30.08,SSE,161,9.0,17.0,41,0.00,,,0.00,weatherlink.com 1.10,2013-04-07 18:21:00,
2013-04-07 14:36:00,68.5,43.0,30.08,SSE,162,6.0,19.0,40,0.00,,,0.00,weatherlink.com 1.10,2013-04-07 18:36:00,
2013-04-07 14:51:00,69.0,42.0,30.07,South,189,9.0,24.0,38,0.00,,,0.00,weatherlink.com 1.10,2013-04-07 18:51:00,
2013-04-07 15:36:00,70.5,43.0,30.05,WSW,252,4.0,13.0,37,0.00,,,0.00,weatherlink.com 1.10,2013-04-07 19:36:00,
2013-04-07 15:51:00,70.3,42.0,30.05,South,174,5.0,17.0,36,0.00,,,0.00,weatherlink.com 1.10,2013-04-07 19:51:00,
2013-04-07 16:21:00,70.3,41.0,30.05,South,172,8.0,21.0,34,0.00,,,0.00,weatherlink.com 1.10,2013-04-07 20:21:00,
2013-04-07 16:36:00,70.6,42.0,30.05,SSE,153,8.0,19.0,35,0.00,,,0.00,weatherlink.com 1.10,2013-04-07 20:36:00,
2013-04-07 16:51:00,70.1,41.0,30.05,SE,124,7.0,15.0,35,0.00,,,0.00,weatherlink.com 1.10,2013-04-07 20:51:00,
2013-04-07 17:06:00,70.5,41.0,30.05,West,259,4.0,14.0,34,0.00,,,0.00,weatherlink.com 1.10,2013-04-07 21:06:00,
2013-04-07 17:21:00,70.9,41.0,30.05,SSW,210,3.0,10.0,34,0.00,,,0.00,weatherlink.com 1.10,2013-04-07 21:21:00,
2013-04-07 17:37:00,70.2,40.0,30.05,SSE,158,9.0,16.0,34,0.00,,,0.00,weatherlink.com 1.10,2013-04-07 21:37:00,
2013-04-07 17:52:00,69.6,41.0,30.05,SSW,207,2.0,14.0,35,0.00,,,0.00,weatherlink.com 1.10,2013-04-07 21:52:00,
2013-04-07 18:07:00,69.5,41.0,30.05,SSW,197,7.0,13.0,35,0.00,,,0.00,weatherlink.com 1.10,2013-04-07 22:07:00,
2013-04-07 18:22:00,69.4,41.0,30.05,SSW,201,3.0,10.0,35,0.00,,,0.00,weatherlink.com 1.10,2013-04-07 22:22:00,
2013-04-07 18:37:00,68.7,40.0,30.05,SW,221,9.0,12.0,35,0.00,,,0.00,weatherlink.com 1.10,2013-04-07 22:37:00,
2013-04-07 18:52:00,68.0,39.0,30.05,SSE,166,4.0,13.0,35,0.00,,,0.00,weatherlink.com 1.10,2013-04-07 22:52:00,
2013-04-07 19:07:00,67.5,39.0,30.06,WSW,243,4.0,15.0,35,0.00,,,0.00,weatherlink.com 1.10,2013-04-07 23:07:00,
2013-04-07 19:22:00,67.2,39.0,30.06,South,184,5.0,14.0,35,0.00,,,0.00,weatherlink.com 1.10,2013-04-07 23:22:00,
2013-04-07 19:37:00,67.0,37.0,30.06,SW,214,5.0,16.0,33,0.00,,,0.00,weatherlink.com 1.10,2013-04-07 23:37:00,
2013-04-07 19:52:00,66.6,36.0,30.06,South,169,11.0,11.0,33,0.00,,,0.00,weatherlink.com 1.10,2013-04-07 23:52:00,
2013-04-07 20:07:00,66.0,36.0,30.06,SSW,211,3.0,7.0,33,0.00,,,0.00,weatherlink.com 1.10,2013-04-08 00:07:00,
2013-04-07 20:22:00,65.6,36.0,30.06,SSW,198,2.0,7.0,34,0.00,,,0.00,weatherlink.com 1.10,2013-04-08 00:22:00,
2013-04-07 20:37:00,65.1,37.0,30.06,SSW,212,2.0,6.0,35,0.00,,,0.00,weatherlink.com 1.10,2013-04-08 00:37:00,
2013-04-07 20:52:00,64.8,36.0,30.07,SSW,210,1.0,6.0,35,0.00,,,0.00,weatherlink.com 1.10,2013-04-08 00:52:00,
2013-04-07 21:07:00,64.5,37.0,30.07,South,179,3.0,6.0,36,0.00,,,0.00,weatherlink.com 1.10,2013-04-08 01:07:00,
2013-04-07 21:22:00,64.0,37.0,30.07,SSW,205,0.0,4.0,37,0.00,,,0.00,weatherlink.com 1.10,2013-04-08 01:22:00,
2013-04-07 21:37:00,63.4,37.0,30.07,South,174,0.0,2.0,38,0.00,,,0.00,weatherlink.com 1.10,2013-04-08 01:37:00,
2013-04-07 21:52:00,62.4,37.0,30.07,SSW,195,0.0,4.0,39,0.00,,,0.00,weatherlink.com 1.10,2013-04-08 01:52:00,
2013-04-07 22:07:00,61.1,38.0,30.08,SSE,157,0.0,1.0,42,0.00,,,0.00,weatherlink.com 1.10,2013-04-08 02:07:00,
2013-04-07 22:22:00,59.5,37.0,30.08,SSE,157,0.0,1.0,44,0.00,,,0.00,weatherlink.com 1.10,2013-04-08 02:22:00,
2013-04-07 22:37:00,58.5,37.0,30.08,SSE,157,0.0,0.0,45,0.00,,,0.00,weatherlink.com 1.10,2013-04-08 02:37:00,
2013-04-07 22:52:00,58.8,37.0,30.08,SSE,156,0.0,1.0,45,0.00,,,0.00,weatherlink.com 1.10,2013-04-08 02:52:00,
2013-04-07 23:07:00,59.2,37.0,30.08,SSE,155,0.0,1.0,44,0.00,,,0.00,weatherlink.com 1.10,2013-04-08 03:07:00,
2013-04-07 23:22:00,58.1,37.0,30.08,SSE,155,0.0,1.0,46,0.00,,,0.00,weatherlink.com 1.10,2013-04-08 03:22:00,
2013-04-07 23:37:00,57.3,38.0,30.08,SSE,155,0.0,0.0,48,0.00,,,0.00,weatherlink.com 1.10,2013-04-08 03:37:00,
2013-04-07 23:52:00,55.4,37.0,30.08,SSE,155,0.0,0.0,50,0.00,,,0.00,weatherlink.com 1.10,2013-04-08 03:52:00,